Hourly Data Report for February 27, 2020

TORONTO CITY
ONTARIO
Current Station Operator: ECCC - MSC

43°40'00.000" N
79°24'00.000" W
112.50 m
6158355
71508
XTO

Download Data

Hourly Data (February 2020)
Hourly Data Report for February 27, 2020
TIME
LST
Temp Definition
°C
Dew Point Definition
°C
Rel Hum Definition
%
Precip. Amount Definition
mm

Wind Dir Definition
10's deg

Wind Spd Definition
km/h
Visibility Definition
km
Stn Press Definition
kPa
Hmdx Definition


Wind Chill Definition


Weather Definition


00:00 -3.1 -4.4 91 1.4       98.72     LegendNANA
01:00 -3.2 -4.6 90 1.2       98.61     LegendNANA
02:00 -3.6 -5.2 89 0.5       98.59     LegendNANA
03:00 -3.7 -5.3 88 0.3       98.51     LegendNANA
04:00 -4.0 -5.4 90 0.8       98.46     LegendNANA
05:00 -4.2 -5.9 88 0.3       98.50     LegendNANA
06:00 -4.8 -6.4 89 0.5       98.59     LegendNANA
07:00 -5.1 -7.2 85 0.3       98.64     LegendNANA
08:00 -4.4 -7.5 79 0.2       98.67     LegendNANA
09:00 -3.5 -8.1 71 0.0       98.66     LegendNANA
10:00 -3.5 -8.3 70 0.0       98.70     LegendNANA
11:00 -3.7 -9.2 65 0.0       98.78     LegendNANA
12:00 -3.8 -10.3 61 0.0       98.82     LegendNANA
13:00 -3.7 -9.7 63 0.2       98.80     LegendNANA
14:00 -3.3 -10.1 59 0.0       98.81     LegendNANA
15:00 -2.9 -9.8 59 0.0       98.83     LegendNANA
16:00 -2.8 -9.9 58 0.0       98.89     LegendNANA
17:00 -3.2 -9.9 60 0.0       98.94     LegendNANA
18:00 -3.9 -9.8 64 0.0       98.98     LegendNANA
19:00 -4.4 -10.2 64 0.0       98.98     LegendNANA
20:00 -4.4 -10.1 64 0.0       99.00     LegendNANA
21:00 -4.6 -9.2 70 0.0       99.02     LegendNANA
22:00 -4.6 -9.0 71 0.0       99.03     LegendNANA
23:00 -4.7 -9.7 68 0.0       99.01     LegendNANA

Notes on Data Quality.

Legend

  • E = Estimated
  • M = Missing
  • NA = Not Available*
  • [empty] = Indicates an unobserved value
Date modified: